Wind_Speed
20 20 20 20 19 19 19 19 19 18 15 13 13 13 13 13 12 12 11 10 10 11 11 12 12 12 13 13 13 13 13 13 12 12 11 11 11 13 15 17 17 17 16
20 22 22 22 23 22 22 21 21 20 19 16 16 16 16 16 15 14 13 12 12 12 13 13 13 14 15 16 17 17 17 17 16 16 15 14 14 14 15 16 18 19 19
20 22 23 23 25 25 24 23 22 21 20 19 18 19 19 19 18 16 15 14 14 15 15 15 16 16 17 18 19 20 20 21 21 20 19 18 17 16 16 17 18 20 21
21 22 23 24 25 25 25 23 23 23 23 22 21 21 21 20 20 18 17 17 16 17 17 17 18 19 19 20 20 21 22 23 24 24 24 22 21 20 19 18 19 19 20
24 24 24 24 25 25 25 24 24 24 25 25 24 23 22 22 21 21 20 19 18 18 18 18 19 20 21 21 21 22 23 24 25 26 26 25 24 23 22 21 20 20 19
27 27 26 26 26 25 25 25 25 25 27 27 26 25 24 23 23 22 22 21 20 20 20 20 20 21 22 22 22 22 23 25 26 26 27 27 26 25 24 23 22 21 21
30 30 29 28 27 27 26 25 25 26 27 28 27 27 26 25 25 24 23 22 21 21 21 21 21 22 22 22 22 22 23 24 25 26 26 26 26 26 25 23 23 23 23
32 32 31 29 28 28 28 26 25 25 25 26 27 28 28 27 27 26 26 24 21 22 22 23 23 22 22 22 22 22 22 23 24 25 26 26 26 26 25 23 23 24 24
34 31 31 29 28 27 26 25 24 23 24 25 26 28 29 29 28 28 27 26 23 22 23 23 22 22 23 23 23 22 22 22 23 24 25 25 25 26 25 23 23 23 24
33 30 29 28 27 26 25 24 24 23 23 25 27 29 30 30 30 29 28 27 25 24 23 22 21 22 23 24 23 22 22 22 22 23 24 25 25 26 26 24 23 23 23
32 31 30 30 28 26 25 24 23 23 24 24 26 29 31 31 31 31 30 28 26 25 24 22 20 21 22 24 23 23 22 21 21 23 24 25 25 26 27 25 24 23 23
32 32 32 31 29 27 26 25 24 23 24 25 26 29 31 32 33 32 30 29 26 25 25 24 22 20 20 22 23 22 22 21 22 23 24 25 25 26 27 27 26 25 24
33 34 33 31 30 28 27 25 25 25 25 26 27 29 31 33 33 33 31 29 27 26 25 25 24 20 20 21 22 22 21 21 21 22 23 24 25 26 27 27 27 27 26
35 35 33 32 31 29 27 26 26 26 27 29 29 29 31 33 33 32 31 29 27 26 25 25 24 22 20 20 21 21 20 20 20 20 21 23 24 25 27 28 28 28 28
37 35 33 32 32 30 29 28 28 29 30 30 30 30 31 33 32 32 31 29 27 26 25 24 24 22 20 20 20 20 20 19 19 19 20 22 24 25 26 28 29 29 29
35 34 33 33 32 32 31 31 31 31 31 31 31 31 32 32 32 31 30 29 27 26 25 24 23 22 21 20 19 19 19 19 19 19 20 21 23 25 26 27 28 29 29
31 30 29 30 30 30 30 31 31 31 32 32 31 31 32 32 31 30 29 27 27 25 24 22 21 21 21 20 19 19 19 19 20 20 20 21 23 25 26 27 28 28 29
24 24 24 24 25 25 26 26 27 28 28 27 27 28 28 29 29 28 26 25 25 23 22 21 20 20 21 21 19 19 19 20 21 21 21 22 23 23 25 26 28 29 29
15 16 16 16 16 17 17 17 18 19 21 21 22 23 24 24 24 24 24 24 23 22 21 20 19 20 21 21 20 19 19 20 21 22 23 23 23 23 24 24 25 26 27
7 8 9 10 11 13 13 14 14 15 15 16 17 18 19 20 20 21 22 21 21 20 20 20 20 20 21 21 21 20 20 20 21 22 23 24 25 24 25 24 24 24 24
7 8 9 10 11 13 14 15 15 16 16 17 17 18 18 19 19 20 20 20 20 20 20 20 20 20 21 21 21 21 20 20 20 21 22 23 25 25 26 26 25 24 24
9 10 11 12 13 15 16 17 18 19 19 20 20 20 19 19 20 20 20 20 20 20 21 20 20 20 20 21 21 21 20 19 19 20 21 21 21 23 24 26 26 26 27
12 13 14 15 16 17 18 19 20 20 20 20 21 21 21 20 20 20 20 19 19 20 20 20 21 21 21 21 21 21 20 18 17 17 17 17 19 21 23 25 27 28 29
15 15 16 17 18 20 20 21 21 21 21 21 21 21 21 21 21 20 20 19 18 18 18 19 19 20 20 20 20 21 20 19 17 16 16 17 17 18 20 22 25 27 29
16 16 17 17 18 19 20 20 20 20 20 20 20 20 21 21 20 20 19 18 17 16 16 16 17 18 19 19 19 20 20 19 18 17 17 17 18 18 20 21 23 25 27
16 16 16 15 15 16 15 16 16 16 17 17 18 19 19 20 20 20 19 17 16 15 14 14 14 14 15 16 17 18 19 18 18 18 19 19 20 21 22 23 24 26 28
Wind_Direction
271 274 276 279 281 283 284 284 282 281 284 292 297 298 297 295 294 295 294 293 291 287 282 279 278 277 276 275 273 273 273 273 272 271 268 265 259 251 246 243 241 240 240
268 270 272 274 276 278 280 280 279 279 280 286 292 293 291 287 286 288 291 292 293 291 288 285 281 279 277 275 273 271 269 268 267 267 268 268 266 260 253 248 246 244 244
263 265 270 272 274 276 279 280 279 278 276 277 282 287 287 284 282 285 288 292 294 295 296 294 290 285 281 277 274 272 269 266 264 263 263 264 265 264 259 255 251 247 246
262 261 263 267 270 273 275 276 275 273 271 273 277 281 283 282 281 283 285 290 294 295 296 296 294 290 285 281 277 274 271 267 263 261 261 260 261 261 261 259 255 252 250
265 262 259 259 260 264 267 269 271 269 270 271 273 276 278 277 276 278 281 286 290 293 295 295 293 290 288 284 280 276 272 268 264 261 258 256 256 258 259 258 258 255 253
265 263 261 258 257 259 261 264 267 267 267 268 269 272 274 274 271 271 275 282 287 290 293 293 293 292 290 286 283 279 274 270 266 262 257 254 253 253 255 256 255 254 253
263 262 261 258 257 258 260 264 266 268 268 264 263 266 269 270 269 269 270 275 281 287 290 291 292 291 290 288 286 283 278 272 267 263 257 252 250 249 250 252 252 250 250
264 262 260 259 258 258 259 263 265 269 268 263 260 261 264 265 266 268 269 270 273 278 284 287 290 290 289 288 287 285 282 277 269 263 257 251 248 246 246 248 249 248 247
266 265 260 257 258 258 258 260 262 267 267 261 258 259 259 260 261 264 267 270 272 275 279 282 286 287 286 286 286 285 284 281 272 264 257 251 247 244 243 244 247 248 247
270 266 263 263 262 261 261 259 259 265 266 262 257 257 257 257 257 259 263 268 272 276 277 278 279 282 284 285 285 283 283 281 273 265 259 252 247 244 241 243 246 247 248
273 269 270 268 267 266 264 263 261 265 265 266 261 258 256 254 254 256 259 263 268 274 277 276 275 276 279 282 282 281 281 277 273 266 259 254 249 245 242 242 244 246 248
276 272 272 272 268 268 266 263 264 265 263 266 264 259 255 251 250 252 255 259 264 270 275 277 276 274 273 276 278 279 278 274 273 266 258 253 249 246 244 243 243 245 247
275 274 274 272 271 268 266 264 262 264 263 264 263 260 254 249 249 249 251 256 261 266 270 273 275 272 269 270 273 276 276 274 273 266 258 252 248 246 245 245 245 245 247
274 275 272 269 270 267 266 264 263 262 264 265 262 258 256 251 248 247 248 251 257 262 266 268 271 270 267 267 270 272 272 272 272 266 257 252 249 247 246 246 247 247 248
273 272 269 267 268 266 266 266 265 262 263 263 261 257 255 250 247 246 246 249 254 259 262 264 266 267 265 265 267 270 270 270 269 265 259 254 250 248 247 247 248 248 248
271 269 267 266 263 264 263 264 264 264 261 260 258 255 250 246 245 245 246 249 253 256 258 259 259 261 261 263 264 266 267 266 266 265 260 255 252 250 248 248 248 248 249
269 266 264 264 262 262 261 260 260 259 258 256 253 249 246 244 243 242 244 248 251 254 255 255 253 254 256 259 261 263 265 265 265 265 262 258 256 253 250 249 249 249 251
267 264 263 261 259 257 256 256 256 253 251 249 248 247 244 243 242 241 243 247 250 251 253 253 250 249 251 255 259 261 264 264 264 264 264 263 260 257 254 252 252 252 253
269 266 262 258 255 251 249 248 247 246 243 244 244 243 242 242 242 244 247 249 250 252 252 252 251 248 248 251 255 257 263 263 262 261 262 262 260 258 256 255 255 256 257
277 272 267 263 258 252 251 251 248 245 244 243 244 247 247 247 248 249 250 251 253 255 254 253 252 249 247 248 251 254 260 264 264 262 261 258 256 256 253 251 254 257 260
308 298 289 280 275 271 266 264 262 261 261 261 261 260 258 254 254 254 254 255 257 257 256 254 253 250 248 247 249 253 260 264 265 262 261 258 255 255 254 251 252 255 257
326 315 306 299 293 287 282 277 274 271 268 266 264 263 261 259 259 258 258 258 258 258 257 256 254 251 248 247 248 252 257 262 263 262 260 260 259 255 254 253 254 255 257
323 315 308 301 294 288 283 279 275 271 268 265 262 259 257 256 256 257 258 258 259 260 258 256 254 252 250 248 248 250 254 258 263 264 262 262 261 259 259 258 258 259 260
322 314 307 301 295 289 283 277 273 269 266 263 260 256 254 252 251 252 253 254 256 256 256 255 253 251 250 249 249 251 251 254 258 261 263 266 269 267 266 265 265 266 267
334 323 314 306 302 295 285 278 273 269 266 262 258 254 251 250 249 248 249 249 251 252 254 254 253 251 250 249 248 249 250 252 254 258 260 264 268 270 270 270 272 273 274
351 343 336 327 318 311 299 288 279 272 267 263 257 252 249 246 247 246 247 247 246 247 248 249 248 248 247 247 247 248 249 252 255 259 263 267 271 274 276 277 279 279 280
Height
5909 5908 5908 5908 5907 5907 5907 5907 5906 5905 5905 5905 5905 5904 5903 5902 5902 5901 5901 5900 5900 5900 5900 5900 5900 5900 5901 5901 5901 5901 5901 5901 5901 5901 5901 5901 5901 5902 5903 5904 5905 5906 5907
5905 5904 5904 5904 5903 5903 5903 5903 5902 5901 5901 5902 5901 5900 5900 5900 5900 5899 5898 5898 5898 5897 5897 5897 5897 5897 5897 5898 5898 5898 5898 5898 5898 5899 5899 5899 5899 5899 5900 5900 5902 5903 5904
5902 5900 5899 5899 5899 5898 5898 5898 5898 5897 5897 5898 5898 5897 5897 5896 5896 5896 5895 5895 5895 5894 5894 5894 5894 5894 5894 5894 5894 5894 5894 5894 5894 5895 5895 5895 5896 5896 5896 5897 5898 5899 5901
5897 5896 5895 5894 5894 5893 5893 5893 5893 5893 5893 5893 5894 5893 5893 5892 5892 5892 5891 5891 5891 5891 5891 5891 5890 5890 5890 5889 5889 5889 5889 5889 5889 5890 5890 5891 5892 5892 5893 5893 5894 5895 5896
5890 5890 5890 5890 5889 5889 5889 5889 5889 5888 5888 5888 5888 5888 5888 5888 5888 5888 5887 5887 5887 5887 5887 5887 5886 5885 5885 5884 5884 5883 5883 5883 5884 5884 5885 5885 5886 5887 5888 5889 5889 5890 5891
5884 5883 5883 5884 5884 5884 5884 5883 5883 5882 5882 5882 5882 5882 5883 5883 5884 5884 5883 5883 5882 5882 5882 5882 5882 5881 5880 5879 5878 5878 5878 5878 5878 5878 5878 5879 5881 5882 5883 5884 5885 5885 5886
5876 5876 5876 5876 5877 5877 5877 5877 5876 5876 5876 5876 5877 5877 5877 5877 5878 5878 5879 5879 5878 5877 5877 5877 5877 5876 5875 5874 5873 5872 5872 5872 5872 5872 5872 5873 5874 5876 5877 5878 5879 5881 5882
5868 5869 5868 5868 5869 5870 5870 5870 5870 5869 5869 5869 5870 5871 5871 5872 5872 5873 5873 5874 5875 5874 5873 5873 5872 5871 5870 5869 5868 5867 5866 5866 5866 5866 5866 5867 5868 5870 5871 5872 5874 5875 5876
5858 5858 5859 5859 5861 5861 5861 5862 5863 5863 5862 5863 5863 5864 5865 5865 5866 5867 5867 5868 5869 5869 5869 5868 5867 5865 5864 5863 5863 5862 5861 5860 5860 5860 5861 5861 5862 5864 5865 5867 5868 5870 5871
5846 5848 5849 5851 5852 5853 5853 5854 5855 5855 5856 5856 5856 5857 5858 5859 5860 5861 5861 5861 5862 5863 5863 5863 5862 5860 5859 5858 5857 5856 5856 5855 5855 5855 5855 5856 5857 5858 5860 5861 5863 5864 5865
5838 5839 5840 5842 5843 5844 5845 5845 5846 5847 5848 5848 5849 5850 5851 5852 5853 5854 5855 5856 5856 5856 5856 5857 5857 5855 5854 5852 5851 5851 5850 5850 5849 5849 5850 5851 5851 5853 5854 5856 5857 5859 5860
5834 5832 5831 5833 5835 5836 5837 5838 5838 5839 5840 5840 5841 5841 5843 5844 5846 5847 5848 5849 5850 5850 5850 5849 5850 5850 5849 5847 5846 5845 5845 5844 5844 5844 5844 5845 5846 5847 5849 5850 5852 5853 5855
5827 5826 5826 5826 5826 5827 5828 5829 5830 5831 5831 5832 5832 5833 5834 5836 5838 5840 5841 5842 5843 5844 5844 5843 5842 5843 5843 5842 5841 5840 5839 5839 5838 5838 5838 5839 5840 5842 5843 5845 5846 5848 5849
5819 5818 5818 5818 5818 5819 5820 5821 5822 5822 5823 5823 5824 5825 5826 5827 5829 5831 5833 5835 5836 5837 5837 5836 5835 5836 5836 5836 5835 5834 5834 5833 5833 5832 5833 5834 5835 5836 5838 5839 5841 5842 5843
5810 5809 5810 5810 5811 5811 5812 5813 5813 5813 5814 5815 5815 5816 5817 5819 5821 5823 5825 5827 5829 5829 5830 5829 5829 5829 5829 5829 5829 5829 5828 5828 5828 5827 5828 5828 5829 5830 5832 5833 5834 5836 5837
5801 5801 5802 5802 5802 5803 5804 5804 5804 5805 5805 5806 5807 5808 5809 5810 5812 5815 5817 5819 5821 5822 5822 5822 5823 5823 5823 5823 5823 5823 5823 5823 5823 5823 5823 5823 5824 5825 5826 5827 5828 5829 5831
5793 5793 5793 5793 5793 5794 5794 5795 5796 5796 5797 5797 5798 5799 5801 5802 5804 5807 5809 5811 5813 5814 5815 5815 5817 5817 5817 5817 5817 5817 5817 5817 5818 5818 5818 5818 5818 5819 5820 5821 5822 5824 5825
5785 5785 5786 5786 5786 5786 5787 5787 5788 5788 5789 5790 5791 5792 5793 5795 5797 5799 5801 5803 5805 5806 5807 5808 5810 5811 5811 5811 5812 5812 5811 5812 5812 5813 5813 5813 5813 5814 5814 5815 5816 5817 5818
5781 5781 5780 5780 5780 5781 5781 5781 5781 5781 5782 5783 5784 5785 5787 5788 5790 5792 5794 5796 5797 5799 5800 5801 5803 5804 5805 5806 5806 5806 5806 5806 5807 5807 5807 5808 5808 5808 5809 5810 5810 5811 5812
5778 5778 5777 5777 5776 5776 5776 5776 5776 5776 5777 5778 5779 5780 5781 5783 5784 5786 5787 5789 5790 5792 5793 5794 5796 5798 5799 5800 5801 5801 5801 5801 5801 5801 5802 5802 5802 5803 5803 5804 5805 5805 5806
5777 5776 5775 5774 5773 5772 5772 5772 5772 5772 5772 5773 5773 5775 5776 5777 5779 5780 5781 5783 5784 5785 5786 5788 5789 5791 5792 5794 5795 5795 5796 5796 5796 5796 5796 5796 5797 5797 5797 5798 5799 5799 5800
5775 5773 5772 5771 5769 5768 5767 5767 5767 5767 5767 5768 5768 5769 5770 5772 5773 5774 5775 5776 5778 5779 5780 5782 5783 5785 5786 5787 5789 5790 5791 5791 5791 5792 5791 5791 5791 5792 5792 5793 5793 5793 5793
5773 5771 5769 5767 5765 5764 5762 5761 5761 5761 5762 5762 5763 5763 5764 5765 5767 5768 5769 5770 5772 5773 5775 5776 5777 5778 5780 5781 5783 5784 5785 5786 5786 5786 5787 5787 5786 5786 5786 5787 5787 5787 5787
5770 5767 5765 5762 5760 5758 5756 5755 5755 5755 5755 5755 5756 5757 5758 5759 5760 5762 5763 5765 5766 5768 5769 5770 5772 5773 5774 5776 5777 5779 5780 5781 5782 5782 5783 5783 5782 5782 5782 5781 5781 5780 5779
5766 5763 5760 5757 5754 5751 5749 5748 5748 5748 5748 5749 5749 5750 5752 5753 5755 5756 5758 5760 5761 5763 5764 5766 5767 5768 5769 5770 5772 5774 5775 5776 5777 5778 5778 5779 5778 5778 5777 5776 5776 5774 5773
5764 5760 5756 5752 5749 5746 5743 5742 5741 5742 5742 5742 5743 5744 5745 5747 5749 5751 5753 5755 5757 5759 5760 5762 5763 5763 5765 5766 5767 5769 5770 5772 5772 5773 5774 5774 5774 5773 5773 5771 5770 5769 5767